Find Shutianyuxing-05

NORAD ID: 67751 Int'l Des: NNA 2026-027 Owner: SDK Country: CN operational
LEOCIRCULARRETROGRADESSO

实时位置

正在加载3D地球...

关于 Shutianyuxing-05

正在加载描述...

即将过境

Passes for default location (London). Set your location on the main map for personalized predictions.

高度历史

Loading altitude history...

两行轨道根数

1 67751U 26027F 26121.27027151 .00002339 00000-0 13726-3 0 9999
2 67751 97.5013 249.5729 0007658 252.4064 107.6331 15.12696570 11825
Epoch: May 1, 2026 • Age: 17 hours

当前状态

高度 538.1 km
速度 7.59 km/s
星下点 -38.34°S, 145.46°W
发射日期 Feb 12, 2026
运行时间 0.2 years
类型 other

技术详情

分类 Payload
质量 50.00 kg
干质量 50.00 kg
总质量 50.00 kg
长度 0.50 m
直径 0.50 m
跨度 1.00 m
形状 Box + pan
制造商 GWCG
平台类型 GSP50
阶段状态 In Orbit
所有者/国家 SDK/CN

Most Searched